| time (UTC) | temp C | wind direction | speed KPH | gust KPH | rain 1hr cm | rain 24hr cm | rain mn cm | humidity % | barometer mb |
| 20260507070047 | 6 | 0 | 0.0 | 0.0 | 0.00 | 0.53 | 0.00 | 89 | 1015.4 |
| 20260507064550 | 6 | 0 | 0.0 | 0.0 | 0.00 | 0.84 | 0.00 | 89 | 1015.5 |
| 20260507063050 | 6 | 0 | 0.0 | 0.0 | 0.00 | 0.84 | 0.00 | 89 | 1015.5 |
| 20260507061552 | 6 | 0 | 0.0 | 0.0 | 0.00 | 0.84 | 0.00 | 88 | 1015.5 |
| 20260507060049 | 7 | 0 | 0.0 | 0.0 | 0.00 | 0.84 | 0.00 | 87 | 1015.6 |
| 20260507054546 | 7 | 0 | 0.0 | 0.0 | 0.00 | 1.30 | 0.00 | 86 | 1015.8 |
| 20260507053045 | 7 | 0 | 0.0 | 0.0 | 0.00 | 1.30 | 0.00 | 85 | 1015.7 |
| 20260507051547 | 7 | 0 | 0.0 | 0.0 | 0.00 | 1.30 | 0.00 | 85 | 1015.7 |
| 20260507050045 | 7 | 0 | 0.0 | 0.0 | 0.00 | 1.30 | 0.00 | 84 | 1016.1 |
| 20260507044549 | 8 | 0 | 0.0 | 0.0 | 0.00 | 1.30 | 0.00 | 80 | 1016.1 |
| 20260507043045 | 8 | 359 | 1.6 | 3.2 | 0.00 | 1.30 | 0.00 | 80 | 1016.1 |
| 20260507041548 | 8 | 0 | 0.0 | 0.0 | 0.00 | 1.30 | 0.00 | 75 | 1016.1 |
| 20260507040046 | 10 | 0 | 0.0 | 1.6 | 0.00 | 1.30 | 0.00 | 75 | 1016.0 |
| 20260507034547 | 10 | 0 | 0.0 | 1.6 | 0.00 | 1.32 | 1.30 | 75 | 1015.9 |
| 20260507033049 | 10 | 359 | 1.6 | 4.8 | 0.00 | 1.32 | 1.30 | 72 | 1015.8 |
| 20260507031550 | 10 | 360 | 3.2 | 8.0 | 0.00 | 1.32 | 1.30 | 70 | 1015.8 |
| 20260507030050 | 11 | 1 | 1.6 | 4.8 | 0.00 | 1.32 | 1.30 | 70 | 1015.9 |
| 20260507024603 | 11 | 354 | 1.6 | 4.8 | 0.00 | 1.32 | 1.30 | 71 | 1015.9 |
| 20260507023055 | 11 | 12 | 0.0 | 0.0 | 0.00 | 1.32 | 1.30 | 70 | 1015.8 |
| 20260507021555 | 11 | 0 | 0.0 | 0.0 | 0.00 | 1.32 | 1.30 | 69 | 1015.7 |
| 20260507020104 | 11 | 0 | 0.0 | 0.0 | 0.00 | 1.32 | 1.30 | 69 | 1015.9 |
| 20260507014605 | 12 | 0 | 0.0 | 3.2 | 0.00 | 1.37 | 1.30 | 66 | 1015.4 |
| 20260507013050 | 12 | 28 | 1.6 | 4.8 | 0.00 | 1.37 | 1.30 | 66 | 1015.4 |
| 20260507011548 | 12 | 333 | 4.8 | 9.7 | 0.00 | 1.37 | 1.30 | 66 | 1015.3 |
| 20260507010050 | 12 | 344 | 1.6 | 8.0 | 0.00 | 1.37 | 1.30 | 68 | 1015.0 |
| 20260507004549 | 12 | 336 | 4.8 | 8.0 | 0.00 | 1.47 | 1.30 | 67 | 1015.0 |
| 20260507003047 | 12 | 334 | 1.6 | 8.0 | 0.00 | 1.47 | 1.30 | 67 | 1015.0 |
| 20260507001553 | 12 | 335 | 4.8 | 9.7 | 0.00 | 1.47 | 1.30 | 66 | 1014.6 |
| 20260507000053 | 13 | 328 | 4.8 | 14.5 | 0.00 | 1.47 | 1.30 | 64 | 1014.1 |
| 20260506234556 | 13 | 338 | 4.8 | 12.9 | 0.00 | 1.55 | 1.30 | 63 | 1013.9 |
| 20260506233048 | 13 | 351 | 4.8 | 12.9 | 0.00 | 1.55 | 1.30 | 63 | 1013.5 |
| 20260506231557 | 13 | 349 | 4.8 | 17.7 | 0.00 | 1.55 | 1.30 | 64 | 1013.6 |
| 20260506230056 | 13 | 337 | 4.8 | 17.7 | 0.00 | 1.55 | 1.30 | 62 | 1013.6 |
| 20260506224552 | 14 | 10 | 8.0 | 12.9 | 0.00 | 1.55 | 1.30 | 63 | 1013.6 |
| 20260506223054 | 14 | 321 | 4.8 | 11.3 | 0.00 | 1.55 | 1.30 | 60 | 1013.8 |
| 20260506221551 | 14 | 307 | 3.2 | 11.3 | 0.00 | 1.55 | 1.30 | 62 | 1013.9 |
| 20260506220055 | 14 | 326 | 4.8 | 8.0 | 0.00 | 1.55 | 1.30 | 60 | 1014.1 |
| 20260506214550 | 15 | 321 | 4.8 | 12.9 | 0.00 | 1.55 | 1.30 | 59 | 1013.6 |
| 20260506213104 | 15 | 338 | 6.4 | 14.5 | 0.00 | 1.55 | 1.30 | 57 | 1013.6 |
| 20260506211605 | 15 | 343 | 4.8 | 9.7 | 0.00 | 1.55 | 1.30 | 57 | 1013.6 |
| 20260506210100 | 15 | 34 | 3.2 | 12.9 | 0.00 | 1.55 | 1.30 | 57 | 1013.3 |
| 20260506204558 | 15 | 303 | 4.8 | 11.3 | 0.00 | 1.55 | 1.30 | 58 | 1013.5 |
| 20260506203052 | 15 | 14 | 3.2 | 12.9 | 0.00 | 1.55 | 1.30 | 58 | 1013.3 |
| 20260506201601 | 15 | 346 | 6.4 | 17.7 | 0.00 | 1.55 | 1.30 | 59 | 1013.4 |
| 20260506200058 | 15 | 340 | 4.8 | 17.7 | 0.00 | 1.55 | 1.30 | 61 | 1013.7 |
| 20260506194558 | 15 | 10 | 6.4 | 14.5 | 0.00 | 1.55 | 1.30 | 60 | 1013.7 |
| 20260506193046 | 15 | 313 | 8.0 | 20.9 | 0.00 | 1.55 | 1.30 | 60 | 1013.5 |
| 20260506191552 | 15 | 327 | 3.2 | 14.5 | 0.00 | 1.55 | 1.30 | 60 | 1013.4 |
| 20260506190055 | 15 | 56 | 3.2 | 16.1 | 0.00 | 1.55 | 1.30 | 64 | 1013.3 |
| 20260506184604 | 15 | 323 | 4.8 | 12.9 | 0.00 | 1.55 | 1.30 | 62 | 1013.3 |
| 20260506183100 | 15 | 24 | 6.4 | 14.5 | 0.00 | 1.55 | 1.30 | 64 | 1013.2 |
| 20260506181551 | 14 | 348 | 6.4 | 12.9 | 0.00 | 1.55 | 1.30 | 64 | 1013.5 |
| 20260506180052 | 14 | 358 | 3.2 | 17.7 | 0.00 | 1.55 | 1.30 | 70 | 1013.6 |
| 20260506174551 | 13 | 20 | 6.4 | 22.5 | 0.00 | 1.55 | 1.30 | 71 | 1013.5 |
| 20260506173052 | 14 | 39 | 8.0 | 17.7 | 0.00 | 1.55 | 1.30 | 69 | 1013.6 |
| 20260506171553 | 13 | 302 | 6.4 | 16.1 | 0.00 | 1.55 | 1.30 | 69 | 1013.7 |
| 20260506170108 | 13 | 5 | 4.8 | 14.5 | 0.00 | 1.55 | 1.30 | 73 | 1013.7 |
| 20260506164551 | 13 | 43 | 6.4 | 12.9 | 0.00 | 1.55 | 1.30 | 76 | 1013.7 |
| 20260506163058 | 12 | 294 | 3.2 | 14.5 | 0.00 | 1.55 | 1.30 | 75 | 1013.8 |
| 20260506161550 | 12 | 25 | 4.8 | 11.3 | 0.00 | 1.55 | 1.30 | 80 | 1013.8 |
| 20260506160048 | 12 | 298 | 4.8 | 16.1 | 0.00 | 1.55 | 1.30 | 81 | 1013.5 |
| 20260506154552 | 11 | 298 | 6.4 | 12.9 | 0.00 | 1.55 | 1.30 | 83 | 1013.4 |
| 20260506153047 | 11 | 347 | 4.8 | 9.7 | 0.00 | 1.55 | 1.30 | 84 | 1013.5 |
| 20260506151549 | 11 | 314 | 4.8 | 11.3 | 0.00 | 1.55 | 1.30 | 86 | 1013.4 |
| 20260506150049 | 11 | 23 | 4.8 | 14.5 | 0.00 | 1.55 | 1.30 | 86 | 1013.1 |
| 20260506144559 | 10 | 6 | 4.8 | 12.9 | 0.00 | 1.55 | 1.30 | 87 | 1012.8 |
| 20260506143045 | 10 | 39 | 3.2 | 12.9 | 0.00 | 1.55 | 1.30 | 89 | 1012.6 |
| 20260506141545 | 9 | 51 | 8.0 | 12.9 | 0.00 | 1.55 | 1.30 | 90 | 1012.4 |
| 20260506140058 | 8 | 338 | 6.4 | 12.9 | 0.00 | 1.55 | 1.30 | 91 | 1012.1 |
| 20260506134556 | 8 | 28 | 8.0 | 16.1 | 0.00 | 1.55 | 1.30 | 91 | 1012.4 |
| 20260506133053 | 8 | 333 | 6.4 | 14.5 | 0.00 | 1.55 | 1.30 | 91 | 1012.4 |
| 20260506131600 | 8 | 289 | 3.2 | 16.1 | 0.00 | 1.55 | 1.30 | 92 | 1012.3 |
| 20260506130100 | 8 | 328 | 6.4 | 17.7 | 0.00 | 1.55 | 1.30 | 92 | 1011.5 |
| 20260506124557 | 7 | 316 | 6.4 | 12.9 | 0.00 | 1.55 | 1.30 | 92 | 1011.5 |
| 20260506123053 | 7 | 342 | 4.8 | 17.7 | 0.00 | 1.55 | 1.30 | 92 | 1011.8 |
| 20260506121557 | 7 | 323 | 8.0 | 14.5 | 0.00 | 1.55 | 1.30 | 92 | 1011.1 |
| 20260506120056 | 7 | 287 | 4.8 | 12.9 | 0.00 | 1.55 | 1.30 | 92 | 1010.8 |
| 20260506114552 | 7 | 338 | 8.0 | 14.5 | 0.00 | 1.55 | 1.30 | 92 | 1010.4 |
| 20260506113055 | 7 | 326 | 4.8 | 12.9 | 0.00 | 1.55 | 1.30 | 92 | 1009.9 |
| 20260506111552 | 7 | 321 | 8.0 | 12.9 | 0.00 | 1.55 | 1.30 | 92 | 1009.5 |
| 20260506110054 | 7 | 325 | 4.8 | 9.7 | 0.00 | 1.55 | 1.30 | 92 | 1009.2 |
| 20260506104550 | 8 | 1 | 4.8 | 16.1 | 0.00 | 1.55 | 1.30 | 92 | 1009.0 |
| 20260506103052 | 8 | 349 | 9.7 | 17.7 | 0.00 | 1.55 | 1.30 | 92 | 1008.8 |
| 20260506101551 | 8 | 360 | 6.4 | 17.7 | 0.00 | 1.55 | 1.30 | 92 | 1008.9 |
| 20260506100050 | 8 | 321 | 8.0 | 19.3 | 0.03 | 1.55 | 1.30 | 92 | 1008.8 |
| 20260506094601 | 8 | 313 | 11.3 | 22.5 | 0.03 | 1.55 | 1.30 | 92 | 1008.7 |
| 20260506093053 | 8 | 5 | 8.0 | 25.7 | 0.05 | 1.55 | 1.30 | 92 | 1008.1 |
| 20260506091552 | 9 | 20 | 11.3 | 22.5 | 0.08 | 1.55 | 1.30 | 91 | 1008.3 |
| 20260506090054 | 12 | 341 | 11.3 | 20.9 | 0.10 | 1.52 | 1.27 | 90 | 1007.5 |
| 20260506084602 | 13 | 326 | 0.0 | 1.6 | 0.20 | 1.52 | 1.27 | 93 | 1007.3 |
| 20260506083050 | 13 | 158 | 0.0 | 3.2 | 0.25 | 1.47 | 1.24 | 93 | 1007.1 |
| 20260506081547 | 13 | 0 | 0.0 | 4.8 | 0.30 | 1.47 | 1.22 | 93 | 1007.3 |
| 20260506073059 | 13 | 0 | 0.0 | 1.6 | 0.30 | 1.22 | 0.97 | 92 | 1007.0 |
| 20260506071557 | 13 | 0 | 0.0 | 1.6 | 0.33 | 1.17 | 0.91 | 92 | 1007.1 |